Port Angeles, WA
on Sunday, February 24, 2013

Sunday
Previous Day Next Day
Daily Summary
 ActualAverageRecord
Temperature
Mean Temperature °F °F  
Max Temperature 48°F 49°F 58°F (1986)
Min Temperature 37°F 35°F 25°F (2003)
Degree Days
Heating Degree Days 22    
Moisture
Dew Point 35°F   
Average Humidity 77    
Maximum Humidity 92    
Minimum Humidity 61    
Precipitation
Precipitation 0.00 in in in ()
Wind
Wind Speed 4 mph   
Max Wind Speed 10 mph   
Max Gust Speed mph   
Visibility 10 miles   
Events Rain   
Averages and records for this station are not official NWS values.
Key: T is trace of precipitation, MM is missing value
Source: NWS Daily Summary
Seasonal Weather Averages
Time(PST)TemperatureDew PointHumidity Pressure Visibility Wind DirectionWind SpeedGust SpeedPrecipitationEvents Conditions
12:53 AM 42.1°F 30.9°F 65% 30.35 in 10.0 miles WSW 10.4 mph - N/A   Overcast
1:53 AM 41.0°F 30.9°F 67% 30.35 in 10.0 miles Calm Calm - N/A   Overcast
2:53 AM 39.9°F 32.0°F 73% 30.35 in 10.0 miles SSW 4.6 mph - N/A   Overcast
3:53 AM 39.2°F 32.0°F 75% 30.32 in 10.0 miles Calm Calm - N/A   Overcast
4:53 AM 39.0°F 33.1°F 79% 30.32 in 10.0 miles Calm Calm - N/A   Overcast
5:53 AM 39.9°F 33.1°F 77% 30.29 in 10.0 miles ESE 3.5 mph - N/A   Overcast
6:53 AM 39.0°F 33.1°F 79% 30.28 in 10.0 miles Calm Calm - N/A   Overcast
7:53 AM 39.9°F 34.0°F 79% 30.27 in 10.0 miles Calm Calm - N/A   Overcast
8:53 AM 42.1°F 36.0°F 79% 30.26 in 10.0 miles Calm Calm - N/A   Overcast
9:53 AM 44.1°F 35.1°F 71% 30.25 in 10.0 miles Calm Calm - N/A   Overcast
10:53 AM 44.1°F 34.0°F 68% 30.23 in 10.0 miles Variable 3.5 mph - N/A   Overcast
11:53 AM 45.0°F 36.0°F 71% 30.21 in 10.0 miles Variable 3.5 mph - N/A   Overcast
12:53 PM 45.0°F 37.0°F 74% 30.19 in 10.0 miles North 4.6 mph - N/A   Overcast
1:53 PM 48.9°F 36.0°F 61% 30.14 in 10.0 miles East 4.6 mph - N/A   Overcast
2:53 PM 45.0°F 37.0°F 74% 30.12 in 10.0 miles NNE 4.6 mph - N/A   Mostly Cloudy
3:53 PM 46.0°F 37.0°F 71% 30.09 in 10.0 miles ESE 3.5 mph - N/A   Overcast
4:53 PM 45.0°F 37.0°F 74% 30.06 in 10.0 miles NNE 3.5 mph - N/A   Overcast
5:53 PM 43.0°F 37.0°F 80% 30.01 in 10.0 miles South 3.5 mph - 0.00 in   Mostly Cloudy
6:53 PM 41.0°F 37.0°F 86% 29.97 in 10.0 miles ENE 4.6 mph - N/A   Mostly Cloudy
7:53 PM 39.0°F 36.0°F 89% 29.94 in 10.0 miles South 3.5 mph - N/A   Clear
8:53 PM 37.9°F 35.1°F 89% 29.91 in 10.0 miles SW 3.5 mph - N/A   Mostly Cloudy
9:53 PM 42.1°F 37.0°F 82% 29.87 in 10.0 miles Variable 3.5 mph - 0.00 in Rain Light Rain
10:53 PM 41.0°F 37.0°F 86% 29.85 in 10.0 miles Calm Calm - 0.00 in Rain Light Rain
11:53 PM 42.1°F 39.9°F 92% 29.83 in 8.0 miles Calm Calm - 0.00 in Rain Light Rain
Moon Phase
Feb. 24 Feb. 25 Mar. 04 Mar. 11 Mar. 19
Sunrise:07:03 AM (PST) Moon Rise:05:08 PM (PST)2/24
Sunset:05:51 PM (PST) Moon Set:06:05 AM (PST)2/24

Copyright © 2014 The Weather Underground, Inc.